Miscellaneous Local Product
Issued by NWS Hastings, NE

Home | Current Version | Previous Version | Text Only | Print | Product List | Glossary On
Versions: 1 2 3 4 5 6 7 8 9 10 11 12 13 14 15 16 17 18 19 20 21 22 23 24 25 26 27 28 29 30 31 32 33 34 35 36 37 38 39 40 41 42 43 44 45 46 47 48 49 50
000
AXUS43 KGID 240302
MISGRI

GID CWA HOURLY WEATHER ROUNDUP
NATIONAL WEATHER SERVICE HASTINGS NE
1000 PM CDT SUN APR 23 2017

NOTE: "FAIR" INDICATES FEW OR NO CLOUDS BELOW 12,000 FEET WITH NO
SIGNIFICANT WEATHER AND/OR OBSTRUCTIONS TO VISIBILITY.

...SOUTH CENTRAL NEBRASKA...

CITY           SKY/WX    TMP DP  RH WIND       PRES   REMARKS
GRAND ISLAND   CLOUDY    57  33  40 S13       29.85S
HASTINGS       CLOUDY    58  32  37 S13       29.87R
KEARNEY        PTCLDY    57  30  35 S15       29.83F
ORD            MOCLDY    59  30  33 S14       29.78F
YORK           CLOUDY    57  30  35 S14       29.88R
AURORA         PTCLDY    58  32  37 S15       29.86S
LEXINGTON      CLOUDY    59  30  32 S20G25    29.79F
HOLDREGE       PTCLDY    58  31  36 S16       29.82F
HEBRON         CLOUDY    57  32  39 S10       29.91R

...NEBRASKA PANHANDLE...

CITY           SKY/WX    TMP DP  RH WIND       PRES   REMARKS
CHADRON        PTCLDY    62  41  46 S15       29.59F
ALLIANCE       PTCLDY    54  40  59 SE9       29.65S
SCOTTSBLUFF    CLOUDY    60  37  42 SE9       29.65R
SIDNEY         CLOUDY    54  39  57 S10       29.69S

...WESTERN AND NORTH CENTRAL NEBRASKA...

CITY           SKY/WX    TMP DP  RH WIND       PRES   REMARKS
VALENTINE      MOCLDY    65  37  35 S17       29.68S
AINSWORTH      PTCLDY    58  36  43 S12       29.71F
ONEILL         PTCLDY    59  28  31 S12       29.78S
BROKEN BOW     CLOUDY    57  29  34 S12       29.77F
IMPERIAL       CLOUDY    57  39  51 S16       29.71F
NORTH PLATTE   CLOUDY    61  35  37 SE12      29.74F
MCCOOK         CLOUDY    59  30  33 S10       29.76F

...EASTERN NEBRASKA...

CITY           SKY/WX    TMP DP  RH WIND       PRES   REMARKS
NORFOLK        PTCLDY    58  29  33 S14       29.83R
SO SIOUX CITY  PTCLDY    63  27  25 S20       29.86R
TEKAMAH        CLEAR     53  37  54 S13       29.88R
COLUMBUS       CLOUDY    57  30  35 S10       29.87S
ALBION         CLOUDY    56  32  39 S12       29.83S
OMAHA EPPLEY   CLEAR     62  31  31 S14       29.91S
OFFUTT AFB     CLOUDY    58  32  36 SE7       29.91S
MILLARD        PTCLDY    59  35  39 SE7       29.91S
LINCOLN        CLOUDY    57  31  37 S12       29.91S
NEBRASKA CITY  PTCLDY    57  26  30 S9        29.94S
BEATRICE       PTCLDY    58  33  38 S10       29.91F
FALLS CITY     CLOUDY    57  35  43 S8        29.95S

...NORTHERN KANSAS...

CITY           SKY/WX    TMP DP  RH WIND       PRES   REMARKS
GOODLAND       CLOUDY    56  39  53 S20       29.73F
HILL CITY      CLOUDY    59  35  40 SE13G21   29.83F
NORTON         CLEAR     57  27  30 SE15G21   29.80F
PHILLIPSBURG   CLEAR     57  36  44 SE13      29.85S
SMITH CENTER   PTCLDY    54  36  50 SE13      29.87S
RUSSELL        CLOUDY    55  34  45 S15       29.87F
CONCORDIA      CLEAR     55  36  48 S13       29.91S
SALINA         CLOUDY    56  40  55 SE12      29.94S
TOPEKA         CLOUDY    57  41  55 CALM      29.99R



USA.gov is the U.S. government's official web portal to all federal, state and local government web resources and services.